Location: Sternwarte_Laufen
(47.9344°N, 12.9346°E)
Time: 02:18:16
(UTC+02:00)

ISS - Pass Details

Date: 18 July 2018
Orbit: 402 x 408 km, 51.6° (Epoch: 17 July)

Event Time Altitude Azimuth Distance (km) Brightness Sun altitude
Exits shadow 00:50:12 71° 343° (NNW) 434 -3.6 -20.8°
Drops below altitude 10° 00:53:28 10° 66° (ENE) 1,470 -0.8 -20.8°
Sets 00:55:34 0° 68° (ENE) 2,333 0.3 -20.9°
